Tiempo cada hora Barrow in Furness

Hoy, 22 Junio, Martes

Tiempo Temperatura Precipitaciones Viento Presión Humedad
00:00 +10°C° 0.1 mm 1 mps 765 mmHg 83%
01:00 +10°C° 0.1 mm 1 mps 765 mmHg 84%
02:00 +9°C° 0.1 mm 1 mps 765 mmHg 84%
03:00 +9°C° 0.1 mm 1 mps 766 mmHg 85%
04:00 +10°C° 0 mm 1 mps 766 mmHg 83%
05:00 +10°C° 0 mm 1 mps 766 mmHg 81%
06:00 +11°C° 0 mm 1 mps 766 mmHg 79%
07:00 +12°C° 0 mm 1 mps 766 mmHg 76%
08:00 +14°C° 0 mm 1 mps 766 mmHg 72%
09:00 +15°C° 0 mm 1 mps 766 mmHg 68%
10:00 +15°C° 0 mm 2 mps 766 mmHg 68%
11:00 +16°C° 0 mm 2 mps 766 mmHg 68%
12:00 +16°C° 0 mm 3 mps 766 mmHg 68%
13:00 +16°C° 0 mm 3 mps 766 mmHg 68%
14:00 +15°C° 0 mm 4 mps 766 mmHg 68%
15:00 +15°C° 0 mm 4 mps 766 mmHg 68%
16:00 +15°C° 0 mm 4 mps 766 mmHg 68%
17:00 +15°C° 0 mm 4 mps 767 mmHg 68%
18:00 +15°C° 0 mm 4 mps 767 mmHg 68%
19:00 +13°C° 0 mm 4 mps 767 mmHg 71%
20:00 +12°C° 0 mm 4 mps 767 mmHg 75%
21:00 +10°C° 0 mm 4 mps 767 mmHg 78%
22:00 +10°C° 0 mm 4 mps 767 mmHg 77%
23:00 +10°C° 0 mm 4 mps 767 mmHg 77%

Mañana, 23 Junio, Miércoles

Tiempo Temperatura Precipitaciones Viento Presión Humedad
00:00 +10°C° 0 mm 4 mps 767 mmHg 76%
01:00 +10°C° 0 mm 3 mps 767 mmHg 77%
02:00 +10°C° 0 mm 3 mps 767 mmHg 78%
03:00 +10°C° 0 mm 3 mps 767 mmHg 79%
04:00 +11°C° 0.2 mm 3 mps 767 mmHg 83%
05:00 +12°C° 0.2 mm 2 mps 767 mmHg 87%
06:00 +12°C° 0.2 mm 2 mps 767 mmHg 91%
07:00 +12°C° 0.4 mm 2 mps 767 mmHg 92%
08:00 +12°C° 0.4 mm 2 mps 767 mmHg 93%
09:00 +11°C° 0.4 mm 3 mps 767 mmHg 95%
10:00 +12°C° 0.1 mm 3 mps 767 mmHg 92%
11:00 +12°C° 0.1 mm 3 mps 767 mmHg 90%
12:00 +13°C° 0.1 mm 3 mps 767 mmHg 88%
13:00 +14°C° 0 mm 3 mps 767 mmHg 87%
14:00 +14°C° 0 mm 3 mps 767 mmHg 86%
15:00 +14°C° 0 mm 3 mps 767 mmHg 85%
16:00 +14°C° 0 mm 3 mps 767 mmHg 86%
17:00 +14°C° 0 mm 3 mps 767 mmHg 86%
18:00 +14°C° 0 mm 3 mps 767 mmHg 87%
19:00 +14°C° 0 mm 3 mps 767 mmHg 89%
20:00 +14°C° 0 mm 2 mps 767 mmHg 91%
21:00 +14°C° 0 mm 2 mps 767 mmHg 93%
22:00 +14°C° 0 mm 2 mps 767 mmHg 94%
23:00 +14°C° 0 mm 2 mps 767 mmHg 94%

Pasado mañana, 24 Junio, Jueves

Tiempo Temperatura Precipitaciones Viento Presión Humedad
00:00 +14°C° 0 mm 2 mps 767 mmHg 95%
01:00 +14°C° 0.2 mm 2 mps 766 mmHg 96%
02:00 +14°C° 0.2 mm 2 mps 766 mmHg 97%
03:00 +14°C° 0.2 mm 2 mps 766 mmHg 97%
04:00 +14°C° 0.3 mm 2 mps 766 mmHg 97%
05:00 +14°C° 0.3 mm 2 mps 766 mmHg 97%
06:00 +14°C° 0.3 mm 2 mps 766 mmHg 96%
07:00 +15°C° 0 mm 2 mps 766 mmHg 93%
08:00 +16°C° 0 mm 3 mps 766 mmHg 89%
09:00 +17°C° 0 mm 3 mps 766 mmHg 85%
10:00 +17°C° 0 mm 3 mps 765 mmHg 83%
11:00 +18°C° 0 mm 3 mps 765 mmHg 80%
12:00 +18°C° 0 mm 3 mps 765 mmHg 77%
13:00 +18°C° 0 mm 3 mps 765 mmHg 76%
14:00 +19°C° 0 mm 4 mps 765 mmHg 75%
15:00 +19°C° 0 mm 4 mps 764 mmHg 75%
16:00 +18°C° 0 mm 4 mps 764 mmHg 77%
17:00 +18°C° 0 mm 4 mps 764 mmHg 79%
18:00 +18°C° 0 mm 4 mps 764 mmHg 81%
19:00 +17°C° 0 mm 4 mps 763 mmHg 86%
20:00 +15°C° 0 mm 4 mps 763 mmHg 90%
21:00 +14°C° 0 mm 5 mps 763 mmHg 95%
22:00 +14°C° 0.1 mm 5 mps 763 mmHg 93%
23:00 +14°C° 0.1 mm 5 mps 763 mmHg 91%

25 Junio, Viernes

Tiempo Temperatura Precipitaciones Viento Presión Humedad
00:00 +13°C° 0.1 mm 5 mps 763 mmHg 90%
01:00 +13°C° 0.6 mm 5 mps 762 mmHg 92%
02:00 +13°C° 0.6 mm 5 mps 762 mmHg 95%
03:00 +13°C° 0.6 mm 6 mps 761 mmHg 97%
04:00 +13°C° 0.2 mm 5 mps 761 mmHg 97%
05:00 +13°C° 0.2 mm 5 mps 761 mmHg 97%
06:00 +13°C° 0.2 mm 4 mps 761 mmHg 97%
07:00 +13°C° 0.1 mm 4 mps 761 mmHg 95%
08:00 +14°C° 0.1 mm 4 mps 761 mmHg 93%
09:00 +14°C° 0.1 mm 3 mps 761 mmHg 91%
10:00 +16°C° 0.1 mm 3 mps 761 mmHg 88%
11:00 +16°C° 0.1 mm 3 mps 761 mmHg 85%
12:00 +17°C° 0.1 mm 3 mps 761 mmHg 81%
13:00 +16°C° 0.1 mm 2 mps 761 mmHg 82%
14:00 +16°C° 0.1 mm 2 mps 761 mmHg 82%
15:00 +16°C° 0.1 mm 2 mps 761 mmHg 82%
16:00 +16°C° 0.1 mm 2 mps 761 mmHg 83%
17:00 +16°C° 0.1 mm 2 mps 761 mmHg 83%
18:00 +15°C° 0.1 mm 1 mps 761 mmHg 83%
19:00 +15°C° 0 mm 1 mps 761 mmHg 86%
20:00 +14°C° 0 mm 1 mps 761 mmHg 89%
21:00 +12°C° 0 mm 0 mps 762 mmHg 91%
22:00 +12°C° 0 mm 0 mps 762 mmHg 92%
23:00 +12°C° 0 mm 1 mps 762 mmHg 92%

26 Junio, Sábado

Tiempo Temperatura Precipitaciones Viento Presión Humedad
00:00 +12°C° 0 mm 1 mps 761 mmHg 93%
01:00 +12°C° 0 mm 1 mps 761 mmHg 92%
02:00 +13°C° 0 mm 1 mps 761 mmHg 92%
03:00 +13°C° 0 mm 2 mps 761 mmHg 91%
04:00 +13°C° 0 mm 2 mps 761 mmHg 90%
05:00 +14°C° 0 mm 2 mps 761 mmHg 90%
06:00 +14°C° 0 mm 2 mps 761 mmHg 89%
07:00 +15°C° 0 mm 2 mps 761 mmHg 86%
08:00 +16°C° 0 mm 2 mps 761 mmHg 83%
09:00 +17°C° 0 mm 2 mps 760 mmHg 79%
10:00 +18°C° 0.1 mm 2 mps 760 mmHg 79%
11:00 +18°C° 0.1 mm 2 mps 760 mmHg 79%
12:00 +18°C° 0.1 mm 2 mps 760 mmHg 79%
13:00 +18°C° 0.5 mm 2 mps 760 mmHg 81%
14:00 +18°C° 0.5 mm 2 mps 760 mmHg 82%
15:00 +18°C° 0.5 mm 2 mps 759 mmHg 84%
16:00 +18°C° 0.8 mm 2 mps 759 mmHg 85%
17:00 +18°C° 0.8 mm 2 mps 759 mmHg 86%
18:00 +18°C° 0.8 mm 3 mps 759 mmHg 87%
19:00 +18°C° 0.8 mm 3 mps 759 mmHg 89%
20:00 +17°C° 0.8 mm 3 mps 759 mmHg 91%
21:00 +16°C° 0.8 mm 3 mps 759 mmHg 93%
22:00 +15°C° 1 mm 4 mps 759 mmHg 93%
23:00 +15°C° 1 mm 4 mps 759 mmHg 94%

27 Junio, Domingo

Tiempo Temperatura Precipitaciones Viento Presión Humedad
00:00 +15°C° 1 mm 5 mps 758 mmHg 94%
01:00 +14°C° 0.4 mm 5 mps 758 mmHg 94%
02:00 +14°C° 0.4 mm 5 mps 758 mmHg 94%
03:00 +14°C° 0.4 mm 5 mps 758 mmHg 95%
04:00 +14°C° 0.3 mm 5 mps 758 mmHg 94%
05:00 +14°C° 0.3 mm 6 mps 758 mmHg 94%
06:00 +14°C° 0.3 mm 6 mps 758 mmHg 94%
07:00 +15°C° 0.1 mm 6 mps 758 mmHg 94%
08:00 +15°C° 0.1 mm 7 mps 758 mmHg 93%
09:00 +15°C° 0.1 mm 7 mps 758 mmHg 93%
10:00 +15°C° 0.2 mm 8 mps 758 mmHg 91%
11:00 +16°C° 0.2 mm 8 mps 758 mmHg 88%
12:00 +17°C° 0.2 mm 8 mps 758 mmHg 86%
13:00 +17°C° 0.1 mm 8 mps 758 mmHg 84%
14:00 +17°C° 0.1 mm 7 mps 758 mmHg 81%
15:00 +18°C° 0.1 mm 7 mps 758 mmHg 79%
16:00 +18°C° 0.1 mm 7 mps 758 mmHg 79%
17:00 +17°C° 0.1 mm 6 mps 759 mmHg 80%
18:00 +17°C° 0.1 mm 6 mps 759 mmHg 80%
19:00 +16°C° 0 mm 6 mps 759 mmHg 82%
20:00 +16°C° 0 mm 5 mps 760 mmHg 84%
21:00 +15°C° 0 mm 5 mps 760 mmHg 86%
22:00 +14°C° 0 mm 5 mps 760 mmHg 88%
23:00 +13°C° 0 mm 4 mps 760 mmHg 89%
Mostrar más

Necesitamos Su Consentimiento

Meteoprog y nuestros Proveedores de Servicios pueden almacenar y acceder a sus datos personales como cookies, identificadores de dispositivo u otras tecnologías similares de su dispositivo y procesar dichos datos para personalizar contenido y anuncios, además de ofrecer funciones de redes sociales y analizar el tráfico.

  • Almacenar y/o acceder a información en su dispositivo

    Se puede almacenar o acceder a cookies, identificadores de dispositivo u otra información de su dispositivo para los fines anteriormente indicados.

  • Anuncios y contenido personalizados, medición de anuncios y contenido, percepciones del público, y desarrollo de productos

    Los anuncios y el contenido pueden personalizarse en base a su perfil. Se pueden añadir más datos para personalizar mejor los anuncios y contenidos. Se puede medir el rendimiento de los anuncios y contenidos. Se puede obtener la percepción sobre el público que ha visto los anuncios y contenidos. Dichos datos pueden usarse para desarrollar o mejorar la experiencia del usuario, sistemas y software.

Al hacer clic en ‘Estoy De Acuerdo’ usted permitirá el uso de las cookies, identificadores de dispositivo, balizas web u otras tecnologías similares indicadas. Su configuración puede cambiarse desde el navegador de su dispositivo.

Para ciertos fines, los intereses legítimos pueden ser considerados por encima del consentimiento. Puede leer más sobre ello en nuestra Política de Privacidad y Cookies.